Printer-friendly version
Follow the MPC on Twitter Follow the MPC on Facebook The MPC blog
Minor Planet Center

MPEC 2002-U13 : COMET C/2002 R3 (LONEOS)

The following Minor Planet Electronic Circular may be linked-to from your own Web pages, but must not otherwise be redistributed electronically.

A form allowing access to any MPEC is at the bottom of this page.


Read MPEC 2002-U12 Read MPEC 2002-U14


M.P.E.C. 2002-U13                                Issued 2002 Oct. 21, 21:35 UT

     The Minor Planet Electronic Circulars contain information on unusual
         minor planets and routine data on comets.  They are published
   on behalf of Commission 20 of the International Astronomical Union by the
          Minor Planet Center, Smithsonian Astrophysical Observatory,
                          Cambridge, MA 02138, U.S.A.

             Prepared using the Tamkin Foundation Computer Network

                              MPC@CFA.HARVARD.EDU
          URL http://cfa-www.harvard.edu/iau/mpc.html  ISSN 1523-6714

                           COMET C/2002 R3 (LONEOS)

Observations:
    CK02R030  C2002 10 10.33040 03 47 33.56 +21 31 05.0          18.7 T      704
    CK02R030  C2002 10 10.34618 03 47 32.18 +21 31 06.7          17.9 T      704
    CK02R030  C2002 10 10.36206 03 47 30.74 +21 31 06.0          18.0 T      704
    CK02R030  C2002 10 10.37786 03 47 29.26 +21 31 05.1          17.9 T      704
    CK02R030  C2002 10 10.39364 03 47 27.79 +21 31 04.2          17.9 T      704
    CK02R030  C2002 10 10.69307 03 47 00.05 +21 30 45.0                      349
    CK02R030  C2002 10 10.70100 03 46 59.30 +21 30 44.0                      349
    CK02R030  C2002 10 10.71750 03 46 57.80 +21 30 43.5                      349
    CK02R030  C2002 10 10.72002 03 46 57.52 +21 30 43.4          17.3 T      349
    CK02R030  C2002 10 10.72243 03 46 57.34 +21 30 42.9                      355
    CK02R030  C2002 10 10.73604 03 46 56.05 +21 30 41.9                      355
    CK02R030  C2002 10 10.73942 03 46 55.73 +21 30 41.4          17.1 T      355
    CK02R030  C2002 10 10.74279 03 46 55.44 +21 30 41.0                      355
    CK02R030  C2002 10 11.32843 03 46 00.68 +21 30 03.2          17.9 T      704
    CK02R030  C2002 10 11.34434 03 45 59.16 +21 30 02.4          18.2 T      704
    CK02R030  C2002 10 11.36028 03 45 57.64 +21 30 01.0          18.2 T      704
    CK02R030  C2002 10 11.37613 03 45 56.15 +21 30 00.1          17.9 T      704
    CK02R030  C2002 10 11.39203 03 45 54.64 +21 29 59.5          18.1 T      704
    CK02R030  C2002 10 11.64420 03 45 30.98 +21 29 40.8          17.2 T      360
    CK02R030  C2002 10 11.64929 03 45 30.50 +21 29 40.5                      360
    CK02R030  C2002 10 11.99089 03 44 58.18 +21 29 16.1          17.0 T      213
    CK02R030  C2002 10 11.99315 03 44 57.92 +21 29 14.9          17.0 T      213
    CK02R030  C2002 10 11.99616 03 44 57.61 +21 29 15.3          17.0 T      213
    CK02R030  C2002 10 12.34078 03 44 24.76 +21 28 50.7          17.7 T      704
    CK02R030  C2002 10 12.35765 03 44 23.12 +21 28 49.5          17.9 T      704
    CK02R030  C2002 10 12.37443 03 44 21.50 +21 28 48.3          18.0 T      704
    CK02R030  C2002 10 12.39124 03 44 19.88 +21 28 47.0          18.0 T      704
    CK02R030  C2002 10 12.40803 03 44 18.26 +21 28 45.6          18.1 T      704
    CK02R030  C2002 10 12.54155 03 44 05.65 +21 28 35.5          16.6 T      367
    CK02R030  C2002 10 12.54468 03 44 05.36 +21 28 34.4                      367
    CK02R030  C2002 10 12.54780 03 44 05.05 +21 28 34.9                      367
    CK02R030  C2002 10 13.67216 03 42 16.08 +21 27 04.1                      349
    CK02R030  C2002 10 13.68377 03 42 14.91 +21 27 03.5                      349
    CK02R030  C2002 10 13.68904 03 42 14.48 +21 27 02.8                      349
    CK02R030  C2002 10 13.70630 03 42 12.77 +21 27 01.6          17.2 T      349
    CK02R030  C2002 10 14.54375 03 40 50.53 +21 25 46.6          16.9 T      367
    CK02R030  C2002 10 14.54688 03 40 50.18 +21 25 46.3                      367
    CK02R030  C2002 10 14.55000 03 40 49.93 +21 25 45.8                      367
    CK02R030  C2002 10 14.62100 03 40 42.83 +21 25 40.8          17.3 T      360
    CK02R030  C2002 10 14.63012 03 40 41.91 +21 25 40.1                      360
    CK02R030  C2002 10 16.30727 03 37 53.44 +21 22 57.7          17.1 T      699
    CK02R030  C2002 10 16.30903 03 37 53.42 +21 22 57.0          17.1 T      699
    CK02R030  C2002 10 16.32834 03 37 51.38 +21 22 54.3                      699
    CK02R030  C2002 10 16.33010 03 37 51.23 +21 22 55.1                      699
    CK02R030  C2002 10 16.34940 03 37 49.20 +21 22 52.4                      699
    CK02R030  C2002 10 16.35116 03 37 49.01 +21 22 52.5                      699
    CK02R030  C2002 10 16.37040 03 37 47.10 +21 22 50.4                      699
    CK02R030  C2002 10 16.37216 03 37 46.91 +21 22 50.4                      699
    CK02R030  C2002 10 16.70574 03 37 12.79 +21 22 14.6          16.6 T      355
    CK02R030  C2002 10 16.70917 03 37 12.43 +21 22 15.2                      355
    CK02R030  C2002 10 16.71279 03 37 12.09 +21 22 14.4                      355
    CK02R030  C2002 10 19.00652 03 33 13.66 +21 17 50.1          16.7 T      232
    CK02R030  C2002 10 19.01023 03 33 13.27 +21 17 49.2          16.7 T      232
    CK02R030  C2002 10 19.01394 03 33 12.98 +21 17 48.8          16.7 T      232
    CK02R030  C2002 10 19.01762 03 33 12.63 +21 17 47.4          16.7 T      232
    CK02R030  C2002 10 19.10978 03 33 02.84 +21 17 38.0          17.2 N      J95
    CK02R030  C2002 10 19.11146 03 33 02.68 +21 17 37.3          16.9 N      J95
    CK02R030  C2002 10 19.11406 03 33 02.42 +21 17 36.7          17.1 N      J95
    CK02R030  C2002 10 19.91214 03 31 37.69 +21 15 53.8          16.4 N      213
    CK02R030  C2002 10 19.91983 03 31 36.83 +21 15 54.4          16.4 N      213

Observer details:
213 Observatorio Montcabre.  Observer R. Naves N.  Measurer M. Campas.  0.25-m
    f/3.3 Schmidt-Cassegrain + CCD.
232 Masquefa Observatory.  Observer E. Reina L.  0.25-m f/6.3
    Schmidt-Cassegrain + CCD.
349 Ageo.  Observer K. Kadota.  0.18-m f/5.5 reflector + CCD, 0.25-m f/5.0
    reflector + CCD.
355 Hadano.  Observer A. Asami.  0.28-m f/5.0 reflector + CCD.
360 Kuma Kogen.  Observer A. Nakamura.  0.60-m f/6.0 Ritchey-Chretien + CCD.
367 Yatsuka.  Observer H. Abe.  0.26-m f/6.0 reflector + CCD.
699 Lowell Observatory-LONEOS.  Observer B. A. Skiff.  0.59-m
    LONEOS Schmidt + CCD.
704 Lincoln Laboratory ETS, New Mexico.  Observers M. Blythe, F. Shelly,
    M. Bezpalko, R. Huber, L. Manguso, S. Adams, D. Torres, T. Brothers,
    S. Partridge.  Measurers J. Stuart, R. Sayer, J. B. Evans, H. Viggh.  1.0-m
    f/2.15 reflector + CCD.
J95 Great Shefford.  Observer P. Birtwhistle.  0.3-m Schmidt-Cassegrain + CCD.

Orbital elements:
    C/2002 R3 (LONEOS)
T 2003 June 13.6053 TT                                  MPC
q   3.869791             (2000.0)            P               Q
                   Peri.   45.0616      +0.9560319      +0.1294414
                   Node    54.2915      +0.0763663      -0.9762449
e   1.0            Incl.  161.0903      +0.2831453      -0.1737550

Brian G. Marsden             (C) Copyright 2002 MPC           M.P.E.C. 2002-U13

Read MPEC 2002-U12 Read MPEC 2002-U14


MPEC number:

Enter an MPEC number in one of the following forms:

  • 1997-B01 (the full form)
  • J97B01 (the packed version of the full form)
  • B01 (the abbreviated form)

Valid HTML 4.01!